Date String (YYYY-MM-DD hh:mm:ss) UTC,Instrument flags,absolute air pressure of the measurement (hPa),sample flow rate (lpm),inlet stack bypass flow (lpm),air temperature of the measurement (°C),ambient temperature measured by the external sensor (°C),aerosol sample conditioner tube jacket temperature (°C),OPC LED temperature (°C),internal box temperature (°C),relative humidity of the measurement (%),span deviation,mass concentration of particles derived from Lorenz-Mie calculation of OPC scattering (μg/m³),mass concentration of particles derived from Lorenz-Mie calculation of OPC scattering (μg/m³),mass concentration of particles derived from Lorenz-Mie calculation of OPC scattering (μg/m³)
DateTimeUTC,F1_M11,P_M11,Q1_M11,Q2_M11,T1_M11,T2_M11,T3_M11,T4_M11,T5_M11,U1_M11,ZSPAN_M11,X2_M11,X0_M11,X1_M11
2023-11-27 16:00:00,SystemResetWarning,0834.7,5.00,000.00,018.9,018.3,000.0,027.2,020.2,12.8,0000.0,0004.30,0006.10,0004.15
2023-11-27 16:01:00,SystemResetWarning,0834.7,5.00,000.00,019.0,018.3,000.0,027.2,020.2,12.8,0000.0,0004.37,0006.89,0004.22
2023-11-27 16:02:00,SystemResetWarning,0834.7,4.99,000.00,019.0,018.4,000.0,027.2,020.2,12.7,0000.0,0004.41,0007.40,0004.26
2023-11-27 16:03:00,SystemResetWarning,0835.1,4.99,000.00,019.0,018.4,000.0,027.2,020.2,12.7,0000.0,0004.44,0007.47,0004.28
2023-11-27 16:04:00,SystemResetWarning,0835.2,5.01,000.00,019.0,018.4,000.0,027.2,020.2,12.5,0000.0,0004.47,0007.55,0004.29
2023-11-27 16:05:00,SystemResetWarning,0835.1,5.01,000.00,019.0,018.4,000.0,027.2,020.2,12.5,0000.0,0004.48,0007.58,0004.31
2023-11-27 16:06:00,SystemResetWarning,0835.2,5.00,000.00,019.0,018.4,000.0,027.2,020.2,12.5,0000.0,0004.51,0007.67,0004.33
2023-11-27 16:07:00,SystemResetWarning,0835.0,5.00,000.00,019.0,018.4,000.0,027.2,020.2,12.7,0000.0,0004.54,0007.73,0004.34
2023-11-27 16:08:00,SystemResetWarning,0834.8,5.00,000.00,019.0,018.4,000.0,027.2,020.3,12.6,0000.0,0004.56,0007.71,0004.35
2023-11-27 16:09:00,SystemResetWarning,0834.7,5.00,000.00,019.1,018.5,000.0,027.2,020.3,12.6,0000.0,0004.58,0007.73,0004.36
2023-11-27 16:10:00,SystemResetWarning,0834.7,5.00,000.00,019.1,018.5,000.0,027.2,020.3,12.6,0000.0,0004.62,0007.81,0004.37
2023-11-27 16:11:00,SystemResetWarning,0834.7,5.00,000.00,019.1,018.5,000.0,027.3,020.3,12.5,0000.0,0004.62,0007.82,0004.38
2023-11-27 16:12:00,SystemResetWarning,0834.8,5.01,000.00,019.1,018.5,000.0,027.3,020.3,12.7,0000.0,0004.61,0007.61,0004.36
2023-11-27 16:13:00,SystemResetWarning,0834.8,5.00,000.00,019.1,018.5,000.0,027.3,020.3,12.8,0000.0,0004.59,0007.27,0004.35
2023-11-27 16:14:00,SystemResetWarning,0834.8,5.01,000.00,019.1,018.5,000.0,027.3,020.4,12.5,0000.0,0004.61,0007.28,0004.36
2023-11-27 16:15:00,SystemResetWarning,0834.8,5.00,000.00,019.1,018.5,000.0,027.3,020.4,12.3,0000.0,0004.61,0007.22,0004.38
2023-11-27 16:16:00,SystemResetWarning,0834.8,4.99,000.00,019.1,018.5,000.0,027.3,020.4,12.3,0000.0,0004.64,0007.28,0004.39
2023-11-27 16:17:00,SystemResetWarning,0834.7,5.00,000.00,019.1,018.6,000.0,027.3,020.4,12.4,0000.0,0004.64,0007.14,0004.40
2023-11-27 16:18:00,SystemResetWarning,0834.7,5.01,000.00,019.2,018.6,000.0,027.3,020.4,12.5,0000.0,0004.65,0007.10,0004.41
2023-11-27 16:19:00,SystemResetWarning,0834.7,4.99,000.00,019.2,018.6,000.0,027.3,020.4,12.5,0000.0,0004.67,0007.17,0004.42
2023-11-27 16:20:00,SystemResetWarning,0834.7,5.00,000.00,019.2,018.6,000.0,027.4,020.4,12.4,0000.0,0004.66,0007.14,0004.43
2023-11-27 16:21:00,SystemResetWarning,0834.8,4.99,000.00,019.2,018.7,000.0,027.4,020.5,12.5,0000.0,0004.66,0007.21,0004.44
2023-11-27 16:22:00,SystemResetWarning,0835.1,5.00,000.00,019.2,018.7,000.0,027.4,020.5,12.6,0000.0,0004.68,0007.23,0004.46
2023-11-27 16:23:00,SystemResetWarning,0835.4,5.01,000.00,019.2,018.7,000.0,027.4,020.5,12.5,0000.0,0004.70,0007.19,0004.48
2023-11-27 16:24:00,SystemResetWarning,0835.2,5.01,000.00,019.3,018.7,000.0,027.4,020.5,12.4,0000.0,0004.72,0007.19,0004.49
2023-11-27 16:25:00,SystemResetWarning,0834.9,5.00,000.00,019.3,018.7,000.0,027.4,020.5,12.5,0000.0,0004.71,0007.08,0004.49
2023-11-27 16:26:00,SystemResetWarning,0834.9,5.00,000.00,019.3,018.7,000.0,027.4,020.5,12.5,0000.0,0004.70,0007.04,0004.50
2023-11-27 16:27:00,SystemResetWarning,0835.0,5.00,000.00,019.3,018.7,000.0,027.4,020.5,12.4,0000.0,0004.67,0006.94,0004.49
2023-11-27 16:28:00,SystemResetWarning,0834.9,4.99,000.00,019.3,018.7,000.0,027.5,020.6,12.4,0000.0,0004.66,0006.94,0004.48
2023-11-27 16:29:00,SystemResetWarning,0834.9,5.01,000.00,019.3,018.8,000.0,027.5,020.6,12.2,0000.0,0004.64,0006.94,0004.46
2023-11-27 16:30:00,SystemResetWarning,0834.9,5.01,000.00,019.3,018.8,000.0,027.5,020.6,12.3,0000.0,0004.61,0006.92,0004.44
2023-11-27 16:31:00,SystemResetWarning,0835.0,5.00,000.00,019.4,018.8,000.0,027.5,020.6,12.3,0000.0,0004.60,0006.88,0004.43
2023-11-27 16:32:00,SystemResetWarning,0835.0,4.99,000.00,019.4,018.8,000.0,027.5,020.6,12.2,0000.0,0004.60,0006.80,0004.42
2023-11-27 16:33:00,SystemResetWarning,0835.0,4.99,000.00,019.4,018.8,000.0,027.5,020.7,12.2,0000.0,0004.59,0006.77,0004.42
2023-11-27 16:34:00,SystemResetWarning,0835.0,5.00,000.00,019.4,018.8,000.0,027.5,020.7,12.3,0000.0,0004.60,0006.83,0004.44
2023-11-27 16:35:00,SystemResetWarning,0835.0,5.00,000.00,019.4,018.9,000.0,027.5,020.7,12.3,0000.0,0004.66,0007.05,0004.50
2023-11-27 16:36:00,SystemResetWarning,0835.0,5.00,000.00,019.4,018.9,000.0,027.6,020.7,12.2,0000.0,0004.76,0007.31,0004.56
2023-11-27 16:37:00,SystemResetWarning,0835.0,5.01,000.00,019.4,018.9,000.0,027.6,020.7,12.3,0000.0,0004.84,0007.40,0004.64
2023-11-27 16:38:00,SystemResetWarning,0835.0,5.00,000.00,019.5,018.9,000.0,027.6,020.7,12.2,0000.0,0004.96,0007.56,0004.75
2023-11-27 16:39:00,SystemResetWarning,0835.0,5.00,000.00,019.5,018.9,000.0,027.6,020.7,12.2,0000.0,0005.09,0007.71,0004.88
2023-11-27 16:40:00,SystemResetWarning,0835.0,4.99,000.00,019.5,018.9,000.0,027.6,020.7,12.4,0000.0,0005.25,0007.90,0005.03
2023-11-27 16:41:00,SystemResetWarning,0835.0,5.00,000.00,019.5,018.9,000.0,027.6,020.8,12.5,0000.0,0005.40,0008.04,0005.20
2023-11-27 16:42:00,SystemResetWarning,0835.1,5.00,000.00,019.5,019.0,000.0,027.6,020.8,12.3,0000.0,0005.59,0008.26,0005.39
2023-11-27 16:43:00,SystemResetWarning,0835.1,5.01,000.00,019.5,019.0,000.0,027.6,020.8,12.3,0000.0,0005.81,0008.56,0005.60
2023-11-27 16:44:00,SystemResetWarning,0835.1,5.01,000.00,019.5,019.0,000.0,027.7,020.8,12.4,0000.0,0006.01,0008.89,0005.80
2023-11-27 16:45:00,SystemResetWarning,0835.0,5.00,000.00,019.6,019.0,000.0,027.7,020.8,12.3,0000.0,0006.18,0009.16,0005.96
2023-11-27 16:46:00,SystemResetWarning,0835.0,4.99,000.00,019.6,019.0,000.0,027.7,020.8,12.1,0000.0,0006.31,0009.35,0006.10
2023-11-27 16:47:00,SystemResetWarning,0835.0,4.99,000.00,019.6,019.0,000.0,027.7,020.9,12.5,0000.0,0006.39,0009.70,0006.20
2023-11-27 16:48:00,SystemResetWarning,0835.0,5.00,000.00,019.6,019.0,000.0,027.7,020.9,12.5,0000.0,0006.47,0009.82,0006.28
2023-11-27 16:49:00,SystemResetWarning,0835.1,5.00,000.00,019.6,019.0,000.0,027.7,020.9,12.3,0000.0,0006.55,0010.25,0006.35
2023-11-27 16:50:00,SystemResetWarning,0835.1,5.01,000.00,019.6,019.0,000.0,027.7,020.9,12.4,0000.0,0006.63,0010.51,0006.41
2023-11-27 16:51:00,SystemResetWarning,0835.1,5.01,000.00,019.6,019.1,000.0,027.8,020.9,12.4,0000.0,0006.69,0010.65,0006.45
2023-11-27 16:52:00,SystemResetWarning,0835.1,5.01,000.00,019.6,019.1,000.0,027.8,020.9,12.2,0000.0,0006.73,0010.69,0006.48
2023-11-27 16:53:00,SystemResetWarning,0835.1,4.99,000.00,019.6,019.0,000.0,027.8,020.9,12.2,0000.0,0006.71,0010.66,0006.48
2023-11-27 16:54:00,SystemResetWarning,0835.1,4.99,000.00,019.6,019.0,000.0,027.8,020.9,12.4,0000.0,0006.64,0010.53,0006.43
2023-11-27 16:55:00,SystemResetWarning,0835.1,4.99,000.00,019.6,019.0,000.0,027.8,020.9,12.5,0000.0,0006.60,0010.45,0006.37
2023-11-27 16:56:00,SystemResetWarning,0835.1,5.01,000.00,019.7,019.0,000.0,027.8,020.9,12.4,0000.0,0006.58,0010.37,0006.35
2023-11-27 16:57:00,SystemResetWarning,0835.1,5.01,000.00,019.7,019.0,000.0,027.8,020.9,12.5,0000.0,0006.58,0010.28,0006.34
2023-11-27 16:58:00,SystemResetWarning,0835.0,5.00,000.00,019.7,019.0,000.0,027.8,020.9,12.2,0000.0,0006.58,0010.02,0006.35
2023-11-27 16:59:00,SystemResetWarning,0835.0,4.99,000.00,019.7,019.1,000.0,027.8,020.9,12.2,0000.0,0006.59,0010.05,0006.33
